User: anonymous   Login
Location: Seminole
(32.7190°N, 102.6440°W)
Time: 21:35:41
(UTC-05:00)
Language:

Meteor 2-10 - Orbit

View from above orbital plane
View from above orbital plane
View from above satellite
View from above satellite

Ground track
Ground track

The orbit data is extracted from the following two-line orbital elements,

1 14452U 83109A   16235.93852303  .00000063  00000-0  19896-4 0  9993
2 14452  81.1630  17.3482 0091330 165.5943 194.7875 14.26406363706505
Epoch (UTC): 22 August 2016 22:31:28
Eccentricity: 0.0091330
inclination: 81.1630°
perigee height: 738 km
apogee height: 869 km
right ascension of ascending node: 17.3482°
argument of perigee: 165.5943°
revolutions per day: 14.26406363
mean anomaly at epoch: 194.7875°
orbit number at epoch: 70650

The dashed part of the orbit path shows where the satellite is in the earth's shadow,  

DLR